Regional Weather Roundup
Issued by NWS Upton, NY

Current Version | Previous Version | Graphics & Text | Print | Product List | Glossary Off
Versions: 1 2 3 4 5 6 7 8 9 10 11 12 13 14 15 16 17 18 19 20 21 22 23 24 25 26 27 28 29 30 31 32 33 34 35 36 37 38 39 40 41 42 43 44 45 46 47 48 49 50

802
ASUS41 KOKX 162308
RWROKX

REGIONAL WEATHER ROUNDUP
NATIONAL WEATHER SERVICE NEW YORK NY
600 PM EST SAT DEC 16 2017

NOTE: "FAIR" INDICATES FEW OR NO CLOUDS BELOW 12,000 FEET WITH NO
SIGNIFICANT WEATHER AND/OR OBSTRUCTIONS TO VISIBILITY.

NYZ071-072-176-178-NJZ106-104-170000-
NEW YORK CITY METRO AREA

CITY           SKY/WX    TMP DP  RH WIND       PRES   REMARKS
Central Park   CLOUDY    39  24  55 VRB7G17   30.07R WCI  34
Bronx Bot Gard   N/A     37  25  60 S2        30.06R
Bronx Lehman C   N/A     37  27  65 W5          N/A  WCI  34
LaGuardia APRT CLOUDY    40  24  53 W12G26    30.05R WCI  33
Queens College   N/A     39  25  56 W13         N/A  WCI  32
Kennedy INTL   CLOUDY    38  27  64 W14       30.07R WCI  30
Breezy Point     N/A     39 N/A N/A W14G22      N/A  WCI  31
Brooklyn Coll    N/A     39  27  60 W9          N/A  WCI  33
Staten Island    N/A     37  25  60 SW7         N/A  WCI  32
Newark/Liberty CLOUDY    38  25  59 W9        30.06R WCI  31
Teterboro      CLOUDY    38  25  59 W3        30.05R
$$

NYZ177-179-078>081-170000-
LONG ISLAND NEW YORK

CITY           SKY/WX    TMP DP  RH WIND       PRES   REMARKS
Jones Beach      N/A     41 N/A N/A W17G25      N/A
Wantagh          N/A     39  27  60 W9          N/A  WCI  33
Matinecock PT    N/A     37 N/A N/A NW12        N/A  WCI  30
Farmingdale    CLOUDY    38  25  59 W9        30.06R WCI  31
MacArthur/ISP  CLOUDY    37  26  64 W9        30.05R WCI  30
Shirley        CLOUDY    37  26  64 W6        30.06R WCI  32
Mt Sinai Harb    N/A    N/A N/A N/A W9G16       N/A
Westhampton    CLOUDY    36  24  62 W8        30.06R WCI  30
East Hampton   CLOUDY    36  25  64 W8        30.04R WCI  29
Southold         N/A     37  27  65 W12G23      N/A  WCI  30
Montauk          N/A     39  27  62 W15G25    30.04R WCI  31
$$

NYZ052-065-067-170000-
HUDSON VALLEY

CITY           SKY/WX    TMP DP  RH WIND       PRES   REMARKS
White Plains   CLOUDY    34  24  67 W10       30.04R WCI  26
Larchmont Harb   N/A     36 N/A N/A W7          N/A  WCI  30
Croton On Huds   N/A     36 N/A N/A NW6         N/A  WCI  31
Somers           N/A     32  25  74 W3          N/A
Brewster         N/A     32  23  69 W5          N/A  WCI  27
Newburgh       CLOUDY    28  25  86 W8        30.05R WCI  20
Montgomery     CLOUDY    29  22  75 SW3       30.04R
Otisville        N/A     30  25  80 W1          N/A
Warwick          N/A     32  27  80 NW3         N/A
Suffern          N/A     32  25  74 W6          N/A  WCI  26
Poughkeepsie   CLOUDY    31  22  69 SW6       30.05R WCI  25
Albany         MOCLDY    25  15  66 NW9       30.08R WCI  15
$$

NJZ001-105-106-008-010-013-015-019>022-104-170000-
NEW JERSEY

CITY           SKY/WX    TMP DP  RH WIND       PRES   REMARKS
Newark/Liberty CLOUDY    38  25  59 W9        30.06R WCI  31
Teterboro      CLOUDY    38  25  59 W3        30.05R
Caldwell       CLOUDY    36  24  62 SW3       30.06R
Somerville     CLOUDY    36  25  64 CALM      30.06R
Linden         CLOUDY    38  25  59 CALM      30.07R
Perth Amboy      N/A     39 N/A N/A W10         N/A  WCI  32
Sussex         CLOUDY    33  25  72 VRB3      30.06R
Andover        NOT AVBL
Trenton        CLOUDY    39  24  55 W5        30.07R
Millville      CLEAR     38  27  64 SW5       30.12R WCI  34
Atlantic City  MOCLDY    39  26  59 SW8       30.11R WCI  33
Wrightstown    CLOUDY    38  25  59 SW9       30.06R WCI  31
Toms River     CLOUDY    38  25  59 W6        30.10R WCI  33
Belmar         CLOUDY    39  23  52 SW10      30.08R WCI  32
$$

PAZ047>061-062-071-170000-
EASTERN PENNSYLVANIA

CITY           SKY/WX    TMP DP  RH WIND       PRES   REMARKS
Philadelphia   MOCLDY    41  25  53 SW15      30.10R
Allentown      CLOUDY    38  25  59 W6        30.07R WCI  33
Scranton       FLURRIES  30  26  85 N6        30.05R WCI  24
$$

CTZ002-004>006-009-010-012-RIZ004-006-007-MAZ004-011-015-170000-
SOUTHERN NEW ENGLAND
 IN CT

CITY           SKY/WX    TMP DP  RH WIND       PRES   REMARKS
Bradley INTL   CLOUDY    29  21  72 NW8       30.05R WCI  21
Hartford       FLURRIES  30  23  75 NW9       30.07R WCI  22
Danbury        CLOUDY    33  22  63 W5        30.05R WCI  29
Wtrbury/Oxford CLOUDY    30  22  72 VRB6      30.02R WCI  24
Norwalk Harbor   N/A     34 N/A N/A W12         N/A  WCI  25
Bridgeport     CLOUDY    35  24  64 W9        30.06R WCI  28
Meriden        CLOUDY    33  21  61 NW7       30.05R WCI  27
New Haven      CLOUDY    36  23  59 W5        30.05R WCI  32
Chester        MOCLDY    32  19  59 CALM      30.03R
Groton         CLOUDY    35  21  56 W9        30.04R WCI  28
Wilimantic     FLURRIES  31  22  69 NW10      30.05R WCI  22

 IN RI

CITY           SKY/WX    TMP DP  RH WIND       PRES   REMARKS
Providence     CLOUDY    33  21  61 NW9       30.04R WCI  25
Block Island   CLOUDY    36  24  62 W23G30    30.02R WCI  24
Westerly       CLOUDY    35  22  58 W6        30.03R WCI  30
 IN MA

CITY           SKY/WX    TMP DP  RH WIND       PRES   REMARKS
Boston         PTCLDY    30  16  56 W16G23    30.01R WCI  19
Worcester      CLOUDY    24  18  77 W8        29.98R WCI  15
Westfield      CLOUDY    28  20  71 W7        30.04R WCI  21
Provincetown   PTCLDY    32  16  51 W23G31    29.99R WCI  19
Nantucket      CLOUDY    34  22  61 NW17G24   30.00R WCI  23
$$

ANZ330-335-338-340-345-350-353-355-170000-
COASTAL MARINE OBSERVATIONS


STATION/POSITION TIME  SKY/WX   TEMP    WIND        PRES    VSBY  WAVE
                                AIR SEA DIR/SP/G                  HT/PER
                 (UTC)          (F)     (DEG/KT/KT) (MB)    (MI)  (FT/S)
NY HARB ENTRANCE 2250            43 51  250/ 21/ 25 1017.2          4/ 5
20 S FIRE ISLAND 2150            43 51  270/ 25/ 33 1016.5          6/ 6
GREAT SOUTH BAY  NOT AVBL
HUDSON CANYON    2150            45 55  280/ 23/ 29 1017.2          8/ 7
KINGS POINT      2224            39 40  320/ 15/ 18 1018.0
EXECUTION ROCKS  2215            39     250/ 12/ 16   N/A
WESTERN LI SOUND NOT AVBL
CENTRAL LI SOUND NOT AVBL
ROBBINS REEF     2224            39     250/ 13/ 14 1018.0
$$


>>>>>>>>>>>>>>>>>>>>>>>>>>>> KEY <<<<<<<<<<<<<<<<<<<<<<<<<<<
>                                                          <
>     SKY/WX - Sky Condition/Present Weather               <
>     TMP    - Temperature in Fahrenheit                   <
>     DP     - Dew Point in Fahrenheit                     <
>     RH     - Relative Humidity in Percent                <
>     WIND   - Direction (from) and Speed in MPH           <
>     PRES   - Mean Sea Level Pressure (inches of Hg)      <
>     WCI    - Wind Chill Index                            <
>     VSB    - VISIBILITY IN MILES                         <
>     HX     - HEAT INDEX                                  <
>     TC     - TEMPERATURE IN CELSIUS                      <
>     VRB    - VARIABLE WIND DIRECTION                     <
>                                                          <
>>>>>>>>>>>>>>>>>>>>>>>>>>>> KEY <<<<<<<<<<<<<<<<<<<<<<<<<<<




USA.gov is the U.S. government's official web portal to all federal, state and local government web resources and services.